TimePDT,TemperatureF,Dew PointF,Humidity,Sea Level PressureIn,VisibilityMPH,Wind Direction,Wind SpeedMPH,Gust SpeedMPH,PrecipitationIn,Events,Conditions,WindDirDegrees,DateUTC
12:56 AM,51.1,34.0,52,30.03,10.0,Calm,Calm,-,N/A,,Clear,0,2012-10-13 07:56:00
1:56 AM,46.0,37.0,71,30.06,10.0,Calm,Calm,-,N/A,,Clear,0,2012-10-13 08:56:00
2:56 AM,46.0,30.9,56,30.09,10.0,Calm,Calm,-,N/A,,Clear,0,2012-10-13 09:56:00
3:56 AM,50.0,28.0,43,30.09,10.0,WNW,6.9,-,N/A,,Clear,290,2012-10-13 10:56:00
4:56 AM,50.0,28.0,43,30.11,10.0,Calm,Calm,-,N/A,,Scattered Clouds,0,2012-10-13 11:56:00
5:56 AM,46.9,28.0,48,30.16,10.0,NNE,3.5,-,N/A,,Clear,30,2012-10-13 12:56:00
6:56 AM,44.1,27.0,51,30.20,10.0,Calm,Calm,-,N/A,,Clear,0,2012-10-13 13:56:00
7:56 AM,39.0,27.0,62,30.21,10.0,SSE,8.1,-,N/A,,Partly Cloudy,150,2012-10-13 14:56:00
8:56 AM,52.0,30.0,43,30.23,10.0,Calm,Calm,-,N/A,,Clear,0,2012-10-13 15:56:00
9:56 AM,57.9,30.0,35,30.24,10.0,West,4.6,-,N/A,,Scattered Clouds,260,2012-10-13 16:56:00
10:56 AM,64.0,35.1,34,30.25,10.0,WNW,5.8,-,N/A,,Clear,300,2012-10-13 17:56:00
11:56 AM,66.0,36.0,33,30.24,10.0,Variable,6.9,-,N/A,,Mostly Cloudy,0,2012-10-13 18:56:00
12:56 PM,66.9,36.0,32,30.22,10.0,Variable,3.5,-,N/A,,Mostly Cloudy,0,2012-10-13 19:56:00
1:56 PM,68.0,35.1,30,30.20,10.0,WNW,8.1,-,N/A,,Clear,300,2012-10-13 20:56:00
2:56 PM,69.1,35.1,29,30.19,10.0,West,9.2,-,N/A,,Clear,280,2012-10-13 21:56:00
3:56 PM,68.0,34.0,28,30.18,10.0,Calm,Calm,-,N/A,,Clear,0,2012-10-13 22:56:00
4:56 PM,68.0,32.0,26,30.18,10.0,Variable,5.8,-,N/A,,Clear,0,2012-10-13 23:56:00
5:56 PM,66.0,33.1,29,30.19,10.0,WNW,3.5,-,N/A,,Clear,300,2012-10-14 00:56:00
6:56 PM,55.9,30.9,39,30.24,10.0,Calm,Calm,-,N/A,,Clear,0,2012-10-14 01:56:00
7:56 PM,50.0,30.0,46,30.28,10.0,ESE,3.5,-,N/A,,Clear,110,2012-10-14 02:56:00
8:56 PM,46.9,28.0,48,30.27,10.0,SE,3.5,-,N/A,,Clear,130,2012-10-14 03:56:00
9:56 PM,44.6,28.4,53,30.30,10.0,Calm,Calm,-,N/A,,Clear,0,2012-10-14 04:56:00
10:56 PM,48.0,32.0,54,30.24,10.0,SSE,8.1,-,N/A,,Clear,150,2012-10-14 05:56:00
11:56 PM,46.0,30.9,56,30.24,10.0,SSE,4.6,-,N/A,,Clear,160,2012-10-14 06:56:00